KCDH

Details ICAO KCDH
Name HARRELL FLD
Region United States
Timezone America/Chicago (UTC-5.0)
Plans Departing 6
Arriving 4
Stats Elevation 130 ft / 40 m (AMSL)
Location 33.622799° -92.763396°
Runways 1
Magnetic Variation 0.630° E
Sunrise 2018-05-25 11:05:55 UTC / 2018-05-25 06:05:55 Local
Sunset 2018-05-26 01:13:00 UTC / 2018-05-25 20:13:00 Local
Advertisement - Login to hide

Runways

ID Width Length Bearing (true) Bearing (mag) Surface Threshold Offset Overrun Length
18 100 ft / 30 m 6,518 ft / 1,987 m 189.02° 188.39° Asphalt 0 ft / 0 m 0 ft / 0 m
36 100 ft / 30 m 6,518 ft / 1,987 m 9.02° 8.39° Asphalt 0 ft / 0 m 0 ft / 0 m

Map

Weather


0- 5 10 15 20 25 30 35+ Temperature / ° C

Clouds and Precipitation
Forecast for 2018-05-25 12:00 UTC. Updated 11 minutes ago

Ground ~20,000 ft ~40,000 ft Winds

METAR

KCDH 251135Z AUTO 00000KT 4SM BR CLR 20/18 A2998 RMK AO2

TAF

Not found

Frequencies

Recorded 125.20 MHz AWOS
Unicom 122.70 MHz CTAF/UNICOM
Warning: Do not use this data for real-world aviation or navigation. No guarantee of current accuracy is given.